Вернуться в каталог

ONEWEB-0116

АктивенСвязьPO
NORAD 48046·PAYLOAD·🇬🇧 United Kingdom

Запущен Mar 25, 2021 с Vostochny Cosmodrome

Loading…

Ближайшие Пролёты (ближайшие 24 часа)

TLE

СвежийSource: CelesTrak SupGP

Эпоха: Sep 15, 2026, 00:34 UTC

1 48046C 21025E   26258.02410139  .00002364  00000+0  64805-2 0  2582
2 48046  87.8933 302.3507 0002053  94.5932 302.9545 13.13471082    13

Отслеживайте ONEWEB-0116 в реальном времени с AllMySat

Download on the App Store